Location: *
(33.8649°S, 62.1526°E)
Time: 04:08:01
(UTC+00:00)

Cosmos 2333 - Pass Details

Date: 17 January 2021
Orbit: 829 x 866 km, 70.9° (Epoch: 27 February)

Event Time Altitude Azimuth Distance (km) Brightness Sun altitude
Rises 22:55:13 0° 205° (SSW) 3,444 7.7 -21.7°
Reaches altitude 10° 22:57:43 10° 207° (SSW) 2,496 6.9 -21.3°
Maximum altitude 23:03:23 66° 288° (WNW) 924 4.1 -20.5°
Enters shadow 23:06:59 22° 4° (N) 1,738 5.5 -20.0°
